sat.trackr.live / text

‹ back to catalog

STARLINK-4376

NORAD 53216 · 2022-084AD

PAYLOAD ACTIVE UNKNOWN

§ Identity

Operator
Country
US
Launch date
2022-07-22
Launch site
AFWTR
Launch vehicle
Mass (kg)
RCS (m²)

Purposes: comms

External: N2YO · Heavens-Above · Gunter

§ Orbital elements

Epoch: 2026-09-19T09:33:28.461312Z

Period
93.91 min
Inclination
97.2852°
Eccentricity
0.0001088
Mean motion
15.33436315 rev/d
Perigee alt
464.8 km
Apogee alt
466.3 km
Semi-major
6,843.7 km
B*
2.1485e-5
RAAN
317.2360°
Arg perigee
91.2984°
Mean anomaly
268.8383°
Rev number
22,852

§ Raw data

STARLINK-43761 53216U 22084AD  26262.39824608  .00000618  00000+0  21485-4 0  99992 53216  97.2852 317.2360 0001088  91.2984 268.8383 15.33436315228525

JSON: /api/v1/satellites/53216 · /tle

For live sub-satellite position, see the globe view (requires WebGL).

§ Visibility from observer

Set your observer location to see the next 7 days of passes ≥ 10°. The values pass through the URL so the page stays shareable.

No JS? Fill the form by hand. The geolocation button needs JavaScript.